This is the latest recevied weather packets stored in our database for station/object KA1JKB. If no packets are shown the sender has not sent any weather packets the latest 10 day(s).
| Time | Temp. | Humidity | Pressure | Rain* | Wind** | Luminosity | Snow |
|---|---|---|---|---|---|---|---|
| 1777906046 | 18.89° C | 57% | 1001.6 hPa | 0 mm | - | 776 W/m² | - |
| 1777905743 | 18.89° C | 56% | 1001.7 hPa | 0 mm | - | 755 W/m² | - |
| 1777905440 | 18.33° C | 58% | 1001.8 hPa | 0 mm | - | 701 W/m² | - |
| 1777905138 | 17.78° C | 58% | 1001.8 hPa | 0 mm | - | 721 W/m² | - |
| 1777904835 | 17.78° C | 60% | 1001.8 hPa | 0 mm | - | 694 W/m² | - |
| 1777904532 | 17.22° C | 62% | 1001.8 hPa | 0 mm | - | 707 W/m² | - |
| 1777904229 | 17.22° C | 61% | 1001.7 hPa | 0 mm | - | 704 W/m² | - |
| 1777903926 | 17.22° C | 61% | 1001.8 hPa | 0 mm | - | 704 W/m² | - |
| 1777903622 | 16.67° C | 61% | 1001.9 hPa | 0 mm | - | 696 W/m² | - |
| 1777903318 | 16.67° C | 62% | 1002 hPa | 0 mm | - | 665 W/m² | - |
| 1777903015 | 16.11° C | 64% | 1002.1 hPa | 0 mm | - | 607 W/m² | - |
| 1777902711 | 16.11° C | 66% | 1001.9 hPa | 0 mm | - | 575 W/m² | - |
| 1777902409 | 15.56° C | 67% | 1002.3 hPa | 0 mm | - | 580 W/m² | - |
| 1777902105 | 15.56° C | 66% | 1002.5 hPa | 0 mm | - | 529 W/m² | - |
| 1777901804 | 15° C | 68% | 1002.2 hPa | 0 mm | - | 488 W/m² | - |
| 1777901501 | 15° C | 68% | 1002.2 hPa | 0 mm | - | 487 W/m² | - |
| 1777901198 | 15° C | 67% | 1002.5 hPa | 0 mm | - | 565 W/m² | - |
| 1777900896 | 15° C | 68% | 1002.4 hPa | 0 mm | - | 525 W/m² | - |
| 1777900593 | 14.44° C | 71% | 1002.6 hPa | 0 mm | - | 504 W/m² | - |
| 1777900290 | 13.89° C | 70% | 1002.6 hPa | 0 mm | - | 502 W/m² | - |
| 1777899986 | 13.89° C | 71% | 1002.8 hPa | 0 mm | - | 479 W/m² | - |
| 1777899683 | 13.89° C | 72% | 1002.7 hPa | 0 mm | - | 459 W/m² | - |
| 1777899381 | 13.33° C | 72% | 1002.7 hPa | 0 mm | - | 424 W/m² | - |
| 1777899078 | 13.33° C | 73% | 1002.7 hPa | 0 mm | - | 389 W/m² | - |
| 1777898775 | 12.78° C | 75% | 1002.6 hPa | 0 mm | - | 345 W/m² | - |
* Rain latest hour (hover to see other rain measurements)
** Current wind speed in m/s (hover to see current wind gust speed)